Location: Ecuvillens
(46.7579°N, 7.0845°E)
Time: 23:16:16
(UTC+00:00)

Daily predictions for brighter satellites

Satellite Brightness Start Highest point End
(mag) Time Altitude Azimuth Time Altitude Azimuth Time Altitude Azimuth
Meteor 2-3 Rocket 4.4 16:11:26 10° NNW 16:17:09 63° W 16:22:51 10° S
CZ-4B R/B 3.0 16:14:54 10° SSE 16:19:07 66° ENE 16:23:10 10° N
ADEOS 4.1 16:16:01 10° S 16:21:12 65° WSW 16:26:25 10° NNW
Meteor 1-27 4.3 16:17:14 10° SSW 16:22:47 85° W 16:28:26 10° N
Iridium 2 4.1 16:21:59 10° N 16:25:34 39° E 16:29:05 10° SSE
Cosmos 1869 3.5 16:21:52 10° SSW 16:25:46 72° W 16:29:41 10° N
Cosmos 1766 Rocket 3.7 16:22:25 10° N 16:26:40 51° ENE 16:30:54 10° SSE
USA 305 3.3 16:25:18 10° SW 16:29:23 52° SE 16:33:30 10° ENE
Cosmos 1606 3.6 16:27:53 10° SSE 16:31:05 28° E 16:34:20 10° NNE
SL-08 R/B 3.5 16:26:44 10° NNE 16:31:33 78° WNW 16:36:14 10° SSW
ARGOS 4.2 16:29:44 10° ESE 16:33:49 22° ENE 16:37:54 10° N
USA 276 2.6 16:32:32 10° W 16:35:35 47° N 16:38:19 12° ENE
Okean O Rocket 3.0 16:33:26 10° ESE 16:36:33 19° ENE 16:39:41 10° NNE
COSMO-SKYMED 1 4.1 16:34:58 10° NE 16:37:49 17° E 16:40:39 10° SE
Cosmos 1464 Rocket 4.3 16:33:33 10° SSE 16:39:37 49° E 16:45:44 10° NNE
Meteor PRIRODA 4.1 16:37:54 10° S 16:41:32 65° WSW 16:45:11 10° NNW
Aureole 3 4.3 16:37:26 10° S 16:42:27 62° E 16:48:47 10° NNE
ERBS 3.8 16:42:58 10° S 16:45:26 21° SE 16:47:12 14° E
Cosmos 2221 2.9 16:45:08 10° SSE 16:49:06 40° E 16:53:07 10° NNE
NOSS 2-1 (E) 2.9 16:46:28 10° SSW 16:49:42 57° SE 16:52:18 15° NE
ISS -3.3 16:49:04 10° W 16:52:24 54° NNW 16:54:50 17° NE
CZ-2C R/B 3.5 16:49:23 10° NE 16:53:50 27° E 16:58:13 10° SSE
USA 267 3.8 16:47:44 10° NE 16:53:56 51° NNW 17:00:12 10° W
Cosmos 1340 Rocket 3.6 16:52:29 10° N 16:56:04 29° ENE 16:59:37 10° SE
deb Chang Zheng 4 4.2 16:53:41 10° SE 16:57:33 33° ENE 17:01:27 10° N
YAOGAN 1 4.2 16:58:27 15° NE 16:58:27 15° NE 17:00:15 10° NNE
AQUARIUS 4.1 16:53:45 10° SSE 16:58:14 82° ENE 17:02:45 10° NNW
Cosmos 1271 Rocket 2.8 16:56:39 10° SSW 17:00:32 81° W 17:04:30 10° N
Nadezhda 4 Rocket 4.1 16:54:21 10° N 17:00:33 57° ENE 17:06:46 10° SSE
USA 306 2.9 16:56:47 10° SW 17:01:02 83° SSE 17:04:01 19° ENE
USA 229 DEB 4.4 16:54:41 10° NNW 17:01:19 38° NE 17:07:26 14° E
USA 229 4.4 16:54:47 10° NNW 17:01:25 38° NE 17:07:28 14° E
Lacrosse 5 rocket 2.9 16:58:24 10° WNW 17:01:25 22° NNW 17:03:54 13° NNE
Cosmos 1891 Rocket 4.5 16:58:27 10° S 17:04:36 85° E 17:10:56 10° N
SMAP 3.3 17:00:39 10° S 17:05:18 74° WSW 17:09:58 10° NNW
Cosmos 1092 Rocket 4.4 17:01:29 10° N 17:07:25 39° ENE 17:13:18 10° SE
ATLAS 2AS CENTAUR R/B 4.0 17:01:04 10° W 17:08:18 39° NW 17:15:18 10° NNE
Cosmos 1408 Rocket 3.4 17:04:09 10° N 17:08:29 66° E 17:12:47 10° SSE
CZ-4B DEB 4.2 17:03:01 10° SSE 17:08:34 89° ENE 17:14:07 10° NNW
Cosmos 1743 Rocket 4.0 17:06:19 10° N 17:10:22 37° ENE 17:14:23 10° SE
Meteor 2-2 Rocket 4.4 17:04:45 10° S 17:10:46 84° E 17:16:50 10° NNE
Cosmos 1697 Rocket 3.6 17:07:12 10° N 17:11:58 27° NE 17:14:22 20° E
Cosmos 1980 Rocket 3.6 17:08:18 10° N 17:12:04 18° NE 17:12:44 17° NE
H-2A R/B 2.0 17:07:46 10° SSE 17:13:00 67° ENE 17:18:08 10° N
PAYLOAD B 4.2 17:10:11 10° SSE 17:15:47 81° ENE 17:21:26 10° NNW
USA 307 2.9 17:11:50 10° WSW 17:16:08 87° NNW 17:18:33 25° ENE
Cosmos 44 3.5 17:13:36 10° NNW 17:18:17 44° NE 17:20:56 22° ESE
ATLAS CENTAUR R/B 2.0 17:16:36 10° SW 17:20:37 55° NW 17:23:56 16° NNE
Cosmos 2034 Rocket 3.9 17:14:50 10° S 17:20:57 70° E 17:27:05 10° NNE
Cosmos 1939 Rocket 4.3 17:18:55 10° S 17:22:50 41° W 17:26:47 10° NNW
Lacrosse 5 2.5 17:18:30 10° WNW 17:23:31 56° SW 17:28:28 10° SSE
NOSS 3-1 (A) 4.2 17:17:52 10° NW 17:24:55 51° NE 17:31:39 16° ESE
SKYMED 2 3.7 17:22:53 16° NNE 17:26:13 50° E 17:30:26 10° S
Cosmos 1898 Rocket 4.0 17:23:56 10° N 17:28:51 37° ENE 17:31:16 24° ESE
NOSS 3-1 (C) 4.0 17:22:38 10° NW 17:30:00 74° NE 17:38:41 10° SE
NOSS 2-1 (C) 3.7 17:27:31 10° WSW 17:30:38 43° NW 17:32:11 25° NNE
MOS 1-B Rocket 3.8 17:25:30 10° NNE 17:31:10 70° ESE 17:37:21 10° S
Cosmos 1656 3.6 17:26:00 10° NNW 17:31:29 63° ENE 17:37:00 10° SE
Cosmos 2084 4.5 17:30:13 10° NNW 17:33:54 28° NE 17:33:54 28° NE
GEOS 3 Rocket 3.6 17:29:05 10° SE 17:34:21 88° SW 17:39:35 10° NW
CZ-2D R/B 3.7 17:30:32 10° S 17:34:21 63° W 17:38:11 10° NNW
Meteor 1-20 Rocket 4.2 17:30:27 10° N 17:36:13 67° ENE 17:42:01 10° SSE
Cosmos 1461 4.3 17:33:20 10° WSW 17:37:10 33° NW 17:39:49 17° NNE
USA 308 3.0 17:34:01 10° WSW 17:38:15 66° NNW 17:39:45 37° NE
SL-08 RB Rocket 3.9 17:34:49 10° SE 17:39:18 48° ENE 17:43:46 10° N
NOSS 2-1 (D) 4.1 17:36:54 10° WSW 17:39:56 36° NW 17:41:11 25° N
Cosmos 468 Rocket 4.3 17:36:46 10° S 17:41:35 43° ESE 17:42:42 37° ENE
Cosmos 1500 Rocket 3.5 17:37:31 10° N 17:42:01 85° E 17:46:27 10° S
SJ 16-02 2.7 17:40:24 10° NW 17:44:29 40° WSW 17:48:34 10° S
Cosmos 1634 Rocket 4.0 17:43:16 10° SSE 17:49:23 56° E 17:55:34 10° NNE
Cosmos 1842 Rocket 4.4 17:48:00 10° SSW 17:52:18 51° WNW 17:56:41 10° N
Cosmos 1805 Rocket 3.4 17:48:01 10° N 17:52:21 65° ENE 17:56:39 10° SSE
CZ-4B R/B 3.4 17:48:08 10° S 17:53:38 72° WSW 17:59:03 10° NNW
CZ-4C R/B 3.6 17:48:48 10° NNW 17:54:47 32° NNE 17:56:09 30° NE
CZ-4 R/B 3.4 18:00:41 17° N 18:00:41 17° N 18:01:45 10° N
Cosmos 1833 Rocket 2.9 17:53:07 10° S 17:58:26 46° ESE 17:58:47 46° E
ATLAS 5 CENTAUR R/B 3.3 17:51:12 10° NW 17:58:39 32° NNE 17:58:54 31° NNE
Cosmos 540 Rocket 4.4 17:59:24 10° S 18:02:28 31° SE 18:02:28 31° SE
Meteor 1-25 Rocket 4.3 18:02:28 10° NNW 18:08:02 76° W 18:13:35 10° S
Cosmos 2026 Rocket 3.8 18:02:35 10° N 18:08:50 88° E 18:14:57 10° S
USA 305 3.5 18:05:17 10° W 18:09:20 44° NNW 18:09:31 44° NNW
Sich 1 4.3 18:07:07 10° N 18:09:17 29° N 18:09:17 29° N
USA 276 4.1 18:08:50 10° WNW 18:10:26 26° NW 18:10:26 26° NW
Okean O Rocket 2.3 18:08:11 10° S 18:12:31 53° W 18:16:54 10° NNW
ARGOS 3.6 18:08:16 10° S 18:13:38 63° WSW 18:19:02 10° NNW
COSMO-SKYMED 1 3.3 18:11:30 20° N 18:14:18 53° WNW 18:18:31 10° SSW
Spot 2 4.3 18:11:28 14° SSE 18:15:49 85° ENE 18:21:01 10° NNW
ATLAS CENTAUR R/B 2.4 18:09:39 10° SW 18:18:53 78° SE 18:19:17 73° E
ERBS 4.2 18:18:01 10° WSW 18:19:49 28° W 18:19:49 28° W
Cosmos 1937 Rocket 3.5 18:16:16 10° NNW 18:21:06 67° NNE 18:21:06 67° NNE
Meteor 2-16 Rocket 4.3 18:18:45 10° N 18:24:52 69° ENE 18:25:15 67° ESE
Cosmos 1763 Rocket 3.5 18:23:12 10° SSW 18:28:15 75° WNW 18:28:45 68° NNW
ISS -1.2 18:26:31 10° WNW 18:27:49 19° NW 18:27:49 19° NW
YAOGAN 1 4.2 18:35:36 27° NNW 18:35:36 27° NNW 18:37:39 10° NNW
Cosmos 1933 4.4 18:29:38 10° SSW 18:33:24 43° W 18:33:24 43° W
CZ-2C R/B 3.6 18:29:20 10° N 18:34:18 43° WNW 18:39:11 10° SW
USA 267 4.1 18:35:05 34° NNE 18:36:11 36° N 18:42:01 10° WNW
Cosmos 2369 4.1 18:33:43 10° NNW 18:38:07 52° N 18:38:07 52° N
Lacrosse 5 rocket 3.9 18:38:41 10° NW 18:39:29 14° NNW 18:39:29 14° NNW
Cosmos 2322 Rocket 4.5 18:40:50 10° N 18:41:20 12° N 18:41:20 12° N
USA 229 DEB 4.0 18:45:33 10° NW 18:52:54 74° SW 18:54:57 51° SSE
USA 229 4.0 18:45:39 10° NW 18:52:59 74° SW 18:54:59 52° SSE
Cosmos 1697 Rocket 3.1 18:50:48 10° NNW 18:56:10 58° WSW 18:56:10 58° WSW
Cosmos 1980 Rocket 3.3 18:51:20 10° NNW 18:54:31 35° NNW 18:54:31 35° NNW
SL-16 R/B 4.4 18:52:18 10° N 18:53:08 13° N 18:53:08 13° N
COSMOS 2455 4.3 18:52:09 10° SSW 18:54:37 26° S 18:54:37 26° S
COSMOS 2406 3.9 18:53:13 10° SSW 18:57:17 48° SW 18:57:17 48° SW
ATLAS CENTAUR R/B 4.1 18:58:10 10° WNW 19:00:03 14° NNW 19:00:03 14° NNW
ATLAS 2AS CENTAUR R/B 4.4 18:55:47 10° NW 19:01:29 22° N 19:02:55 21° N
Cosmos 2082 Rocket 4.2 18:56:56 10° SSW 18:58:13 17° SSW 18:58:13 17° SSW
CZ-4C R/B 3.8 19:37:03 10° NW 19:41:21 42° NW 19:41:21 42° NW
